EW5447 Weather Reports


Display with metric or nautical units.
time (UTC)temp
F
wind
direction
speed
MPH
gust
MPH
rain 1hr
in
rain 24hr
in
rain mn
in
humidity
%
barometer
mb
20260507051553 58 46 2.0 4.0 0.00 0.00 0.00 65 1019.1
20260507050052 60 71 1.0 3.0 0.00 0.00 0.00 63 1019.1
20260507044551 62 9 0.0 0.0 0.00 0.00 0.00 60 1019.1
20260507043051 62 334 1.0 5.0 0.00 0.00 0.00 59 1018.9
20260507041550 64 52 0.0 3.0 0.00 0.00 0.00 56 1018.7
20260507040051 65 25 1.0 5.0 0.00 0.00 0.00 54 1018.6
20260507034550 65 49 2.0 8.0 0.00 0.00 0.00 55 1018.3
20260507033048 68 319 2.0 8.0 0.00 0.00 0.00 48 1018.2
20260507031548 69 41 0.0 3.0 0.00 0.00 0.00 51 1018.1
20260507030052 70 84 1.0 2.0 0.00 0.00 0.00 45 1017.9
20260507024547 72 12 3.0 8.0 0.00 0.00 0.00 45 1017.6
20260507023046 74 325 4.0 11.0 0.00 0.00 0.00 42 1017.5
20260507021555 75 347 6.0 11.0 0.00 0.00 0.00 44 1017.4
20260507020051 76 5 4.0 12.0 0.00 0.00 0.00 41 1017.3
20260507014558 77 360 7.0 11.0 0.00 0.00 0.00 41 1017.3
20260507013042 78 351 7.0 15.0 0.00 0.00 0.00 39 1017.3
20260507011542 78 346 8.0 13.0 0.00 0.00 0.00 40 1017.1
20260507010045 79 302 11.0 15.0 0.00 0.00 0.00 39 1017.0
20260507004543 80 315 8.0 15.0 0.00 0.00 0.00 40 1016.8
20260507003039 82 348 8.0 11.0 0.00 0.00 0.00 41 1016.5
20260507001538 82 266 3.0 12.0 0.00 0.00 0.00 39 1016.4
20260507000039 84 327 3.0 13.0 0.00 0.00 0.00 41 1016.3
20260506234535 83 225 4.0 9.0 0.00 0.00 0.00 38 1016.2
20260506233034 83 233 7.0 14.0 0.00 0.00 0.00 41 1016.2
20260506231534 83 223 4.0 6.0 0.00 0.00 0.00 41 1016.3
20260506230029 82 204 7.0 10.0 0.00 0.00 0.00 41 1016.4
20260506224528 83 211 4.0 9.0 0.00 0.00 0.00 39 1016.7
20260506223026 82 179 2.0 5.0 0.00 0.00 0.00 39 1016.9
20260506221525 82 263 5.0 8.0 0.00 0.00 0.00 39 1017.2
20260506220029 82 182 3.0 7.0 0.00 0.00 0.00 41 1017.4
20260506214521 81 349 3.0 6.0 0.00 0.00 0.00 42 1017.5
20260506213019 80 168 3.0 7.0 0.00 0.00 0.00 41 1017.8
20260506211517 79 184 2.0 6.0 0.00 0.00 0.00 44 1018.0
20260506210020 80 186 3.0 6.0 0.00 0.00 0.00 43 1018.2
20260506204518 78 167 1.0 5.0 0.00 0.00 0.00 41 1018.4
20260506203011 77 198 4.0 8.0 0.00 0.00 0.00 43 1018.6
20260506201509 76 150 2.0 6.0 0.00 0.00 0.00 46 1018.8
20260506200008 76 205 0.0 6.0 0.00 0.00 0.00 47 1019.0
20260506194506 76 222 4.0 8.0 0.00 0.00 0.00 47 1019.3
20260506193004 75 100 2.0 5.0 0.00 0.00 0.00 46 1019.5
20260506191559 74 188 1.0 5.0 0.00 0.00 0.00 49 1019.7
20260506190056 74 243 2.0 6.0 0.00 0.00 0.00 50 1019.7
20260506184558 73 5 0.0 2.0 0.00 0.00 0.00 48 1020.0
20260506183050 70 226 0.0 6.0 0.00 0.00 0.00 54 1020.1
20260506181548 69 98 1.0 3.0 0.00 0.00 0.00 54 1020.4
20260506180041 68 252 0.0 4.0 0.00 0.00 0.00 57 1020.5
20260506174539 67 269 2.0 7.0 0.00 0.00 0.00 63 1020.4
20260506173042 66 197 0.0 2.0 0.00 0.00 0.00 60 1020.5
20260506171542 65 279 1.0 4.0 0.00 0.00 0.00 64 1020.5
20260506170027 64 189 1.0 4.0 0.00 0.00 0.00 64 1020.8
20260506164525 63 103 0.0 3.0 0.00 0.00 0.00 62 1020.9
20260506163031 62 263 1.0 3.0 0.00 0.00 0.00 65 1020.8
20260506161513 61 157 0.0 3.0 0.00 0.00 0.00 67 1020.9
20260506160014 59 199 1.0 2.0 0.00 0.00 0.00 70 1021.0
20260506154506 58 211 0.0 3.0 0.00 0.00 0.00 75 1021.0
20260506153001 56 124 0.0 2.0 0.00 0.00 0.00 79 1021.1
20260506151557 57 228 0.0 2.0 0.00 0.00 0.00 79 1021.1
20260506150054 53 234 0.0 0.0 0.00 0.00 0.00 82 1021.1
20260506144550 51 236 0.0 0.0 0.00 0.00 0.00 86 1020.8
20260506143048 49 314 0.0 0.0 0.00 0.00 0.00 89 1020.8
20260506141549 47 9 0.0 0.0 0.00 0.00 0.00 93 1020.6
20260506140050 45 53 0.0 0.0 0.00 0.00 0.00 93 1020.1
20260506134536 42 311 0.0 0.0 0.00 0.00 0.00 94 1020.0
20260506133034 40 281 0.0 0.0 0.00 0.00 0.00 93 1019.9
20260506131532 40 327 0.0 0.0 0.00 0.00 0.00 93 1019.7
20260506130029 40 75 0.0 0.0 0.00 0.00 0.00 92 1019.5
20260506124526 41 19 0.0 0.0 0.00 0.00 0.00 93 1019.5
20260506123024 40 315 0.0 0.0 0.00 0.00 0.00 92 1019.3
20260506121521 41 296 0.0 0.0 0.00 0.00 0.00 91 1019.2
20260506120027 42 27 0.0 0.0 0.00 0.00 0.00 91 1019.1
20260506114519 42 75 0.0 1.0 0.00 0.00 0.00 92 1019.0
20260506113018 42 303 0.0 0.0 0.00 0.00 0.00 90 1018.7
20260506111513 42 53 0.0 0.0 0.00 0.00 0.00 91 1018.6
20260506110013 43 53 0.0 2.0 0.00 0.00 0.00 91 1018.6
20260506104509 43 317 1.0 3.0 0.00 0.00 0.00 88 1018.5
20260506103007 44 24 1.0 2.0 0.00 0.00 0.00 90 1018.5
20260506101504 44 49 0.0 0.0 0.00 0.00 0.00 89 1018.2
20260506100002 45 322 0.0 2.0 0.00 0.00 0.00 90 1018.2
20260506094600 45 287 0.0 0.0 0.00 0.00 0.00 88 1018.2
20260506093112 45 320 0.0 1.0 0.00 0.00 0.00 88 1018.0
20260506091556 46 360 0.0 1.0 0.00 0.00 0.00 88 1017.7
20260506090101 46 66 0.0 2.0 0.00 0.00 0.00 87 1017.8
20260506084550 46 284 0.0 0.0 0.00 0.00 0.00 86 1017.7
20260506083047 47 315 0.0 0.0 0.00 0.00 0.00 85 1017.6
20260506081546 48 189 0.0 0.0 0.00 0.00 0.00 84 1017.6
20260506073040 50 348 1.0 3.0 0.00 0.00 0.00 82 1017.1
20260506071536 51 355 1.0 3.0 0.00 0.00 0.00 81 1016.8
20260506061530 52 9 0.0 2.0 0.00 0.00 0.00 76 1016.3